GMMN

Casablanca/Mohammed V International Airport

Airport
ICAO code
GMMN
IATA Code
CMN
Summary
ICAO Region
AFI
ICAO Territory
Location

Casablanca, Grand Casablanca

Serving
Casablanca
Elevation
656 ft
Coordinates
33° 22' 4" N , 7° 35' 32" W
KCC
Metar
Observation
GMMN 090430Z 12004KT 9999 BKN034 06/04 Q1020 NOSIG
Station
Nouasseur
Date/Time
2023-02-09 04:30:00
Wind direction
120°
Wind speed
04 kts
Lowest cloud amount
broken clouds
Temperature
6°C
Dew point
4°C
Humidity
86%
QNH
1020 hPa
Weather condition
n/a

International airport serving Casablanca.

Climatology

Warm mediterranean climate (Köppen climate classification Csa)

Runways

Designator Length Width Surface Rops
17L/35R 3720 45 ASP Yes/Yes
17R/35L 3720 45 ASP Yes/Yes

Airport map

Aerial View

Airport accidents

SKYbrary Partners:

Safety knowledge contributed by: